| time (UTC) | temp C | wind direction | speed KPH | gust KPH | rain 1hr cm | rain 24hr cm | rain mn cm | humidity % | barometer mb |
| 20260504045558 | 13 | 227 | 6.4 | 12.9 | 0.00 | 0.00 | 0.00 | 65 | 1005.4 |
| 20260504045058 | 13 | 213 | 6.4 | 12.9 | 0.00 | 0.00 | 0.00 | 65 | 1005.4 |
| 20260504044612 | 13 | 230 | 6.4 | 14.5 | 0.00 | 0.00 | 0.00 | 64 | 1005.4 |
| 20260504044100 | 13 | 224 | 6.4 | 14.5 | 0.00 | 0.00 | 0.00 | 64 | 1005.4 |
| 20260504043602 | 14 | 213 | 8.0 | 17.7 | 0.00 | 0.00 | 0.00 | 64 | 1005.3 |
| 20260504043110 | 14 | 236 | 6.4 | 17.7 | 0.00 | 0.00 | 0.00 | 64 | 1005.3 |
| 20260504042558 | 14 | 211 | 8.0 | 17.7 | 0.00 | 0.00 | 0.00 | 64 | 1005.4 |
| 20260504042057 | 14 | 204 | 8.0 | 17.7 | 0.00 | 0.00 | 0.00 | 64 | 1005.4 |
| 20260504041608 | 14 | 221 | 9.7 | 17.7 | 0.00 | 0.00 | 0.00 | 63 | 1005.4 |
| 20260504041102 | 14 | 212 | 9.7 | 16.1 | 0.00 | 0.00 | 0.00 | 63 | 1005.4 |
| 20260504040558 | 14 | 207 | 8.0 | 17.7 | 0.00 | 0.00 | 0.00 | 63 | 1005.3 |
| 20260504040116 | 14 | 227 | 8.0 | 17.7 | 0.00 | 0.00 | 0.00 | 63 | 1005.4 |
| 20260504035558 | 14 | 217 | 8.0 | 14.5 | 0.00 | 0.00 | 0.00 | 63 | 1005.4 |
| 20260504035059 | 14 | 212 | 6.4 | 12.9 | 0.00 | 0.00 | 0.00 | 62 | 1005.3 |
| 20260504034616 | 14 | 216 | 6.4 | 12.9 | 0.00 | 0.00 | 0.00 | 62 | 1005.4 |
| 20260504034058 | 14 | 204 | 8.0 | 12.9 | 0.00 | 0.00 | 0.00 | 62 | 1005.4 |
| 20260504033558 | 15 | 204 | 8.0 | 11.3 | 0.00 | 0.00 | 0.00 | 62 | 1005.5 |
| 20260504033105 | 15 | 204 | 6.4 | 9.7 | 0.00 | 0.00 | 0.00 | 61 | 1005.5 |
| 20260504032558 | 15 | 204 | 4.8 | 9.7 | 0.00 | 0.00 | 0.00 | 61 | 1005.6 |
| 20260504032058 | 15 | 215 | 4.8 | 11.3 | 0.00 | 0.00 | 0.00 | 61 | 1005.6 |
| 20260504031622 | 15 | 208 | 4.8 | 14.5 | 0.00 | 0.00 | 0.00 | 60 | 1005.6 |
| 20260504031057 | 15 | 211 | 6.4 | 14.5 | 0.00 | 0.00 | 0.00 | 60 | 1005.7 |
| 20260504030602 | 15 | 224 | 8.0 | 14.5 | 0.00 | 0.00 | 0.00 | 60 | 1005.7 |
| 20260504030116 | 15 | 219 | 6.4 | 16.1 | 0.00 | 0.00 | 0.00 | 60 | 1005.7 |
| 20260504025558 | 15 | 206 | 8.0 | 16.1 | 0.00 | 0.00 | 0.00 | 60 | 1005.7 |
| 20260504025059 | 15 | 210 | 6.4 | 14.5 | 0.00 | 0.00 | 0.00 | 59 | 1005.7 |
| 20260504024601 | 15 | 210 | 8.0 | 14.5 | 0.00 | 0.00 | 0.00 | 59 | 1005.7 |
| 20260504024058 | 15 | 206 | 6.4 | 12.9 | 0.00 | 0.00 | 0.00 | 59 | 1005.7 |
| 20260504023558 | 15 | 219 | 6.4 | 14.5 | 0.00 | 0.00 | 0.00 | 59 | 1005.8 |
| 20260504023058 | 15 | 211 | 8.0 | 14.5 | 0.00 | 0.00 | 0.00 | 58 | 1005.6 |
| 20260504022628 | 15 | 217 | 6.4 | 11.3 | 0.00 | 0.00 | 0.00 | 58 | 1005.7 |
| 20260504022057 | 16 | 211 | 4.8 | 9.7 | 0.00 | 0.00 | 0.00 | 57 | 1005.7 |
| 20260504021608 | 16 | 215 | 4.8 | 9.7 | 0.00 | 0.00 | 0.00 | 57 | 1005.7 |
| 20260504021057 | 16 | 209 | 4.8 | 9.7 | 0.00 | 0.00 | 0.00 | 57 | 1005.6 |
| 20260504020559 | 16 | 213 | 4.8 | 12.9 | 0.00 | 0.00 | 0.00 | 57 | 1005.6 |
| 20260504020057 | 16 | 215 | 4.8 | 12.9 | 0.00 | 0.00 | 0.00 | 57 | 1005.6 |
| 20260504015558 | 16 | 198 | 8.0 | 11.3 | 0.00 | 0.00 | 0.00 | 56 | 1005.5 |
| 20260504015059 | 16 | 211 | 4.8 | 9.7 | 0.00 | 0.00 | 0.00 | 56 | 1005.4 |
| 20260504014557 | 16 | 203 | 4.8 | 9.7 | 0.00 | 0.00 | 0.00 | 56 | 1005.5 |
| 20260504014101 | 16 | 212 | 4.8 | 8.0 | 0.00 | 0.00 | 0.00 | 55 | 1005.5 |
| 20260504013558 | 16 | 215 | 4.8 | 8.0 | 0.00 | 0.00 | 0.00 | 55 | 1005.6 |
| 20260504013058 | 17 | 220 | 4.8 | 8.0 | 0.00 | 0.00 | 0.00 | 54 | 1005.5 |
| 20260504012602 | 17 | 216 | 4.8 | 8.0 | 0.00 | 0.00 | 0.00 | 54 | 1005.5 |
| 20260504012101 | 17 | 219 | 4.8 | 8.0 | 0.00 | 0.00 | 0.00 | 53 | 1005.3 |
| 20260504011558 | 17 | 213 | 3.2 | 8.0 | 0.00 | 0.00 | 0.00 | 52 | 1005.3 |
| 20260504011058 | 17 | 214 | 3.2 | 8.0 | 0.00 | 0.00 | 0.00 | 52 | 1005.3 |
| 20260504010558 | 17 | 215 | 3.2 | 6.4 | 0.00 | 0.00 | 0.00 | 51 | 1005.2 |
| 20260504010059 | 18 | 214 | 3.2 | 6.4 | 0.00 | 0.00 | 0.00 | 51 | 1005.1 |
| 20260504005558 | 18 | 215 | 3.2 | 6.4 | 0.00 | 0.00 | 0.00 | 50 | 1005.1 |
| 20260504005058 | 18 | 219 | 3.2 | 6.4 | 0.00 | 0.00 | 0.00 | 49 | 1005.1 |
| 20260504004559 | 18 | 225 | 3.2 | 11.3 | 0.00 | 0.00 | 0.00 | 49 | 1005.1 |
| 20260504004058 | 18 | 215 | 3.2 | 12.9 | 0.00 | 0.00 | 0.00 | 49 | 1005.0 |
| 20260504003557 | 18 | 213 | 4.8 | 17.7 | 0.00 | 0.00 | 0.00 | 48 | 1005.1 |
| 20260504003059 | 19 | 227 | 4.8 | 17.7 | 0.00 | 0.00 | 0.00 | 47 | 1005.1 |
| 20260504002558 | 19 | 214 | 3.2 | 9.7 | 0.00 | 0.00 | 0.00 | 47 | 1005.1 |
| 20260504002058 | 19 | 240 | 3.2 | 12.9 | 0.00 | 0.00 | 0.00 | 46 | 1005.2 |
| 20260504001557 | 19 | 215 | 6.4 | 12.9 | 0.00 | 0.00 | 0.00 | 46 | 1005.2 |
| 20260504001058 | 20 | 229 | 4.8 | 16.1 | 0.00 | 0.00 | 0.00 | 46 | 1005.3 |
| 20260504000558 | 20 | 229 | 6.4 | 17.7 | 0.00 | 0.00 | 0.00 | 45 | 1005.2 |
| 20260504000138 | 20 | 225 | 6.4 | 17.7 | 0.00 | 0.00 | 0.00 | 45 | 1005.1 |
| 20260503235558 | 20 | 227 | 6.4 | 16.1 | 0.00 | 0.00 | 0.00 | 45 | 1005.1 |
| 20260503235058 | 20 | 198 | 6.4 | 16.1 | 0.00 | 0.00 | 0.00 | 45 | 1005.1 |
| 20260503234603 | 20 | 261 | 8.0 | 17.7 | 0.00 | 0.00 | 0.00 | 45 | 1005.1 |
| 20260503234058 | 20 | 249 | 6.4 | 19.3 | 0.00 | 0.00 | 0.00 | 45 | 1005.2 |
| 20260503233558 | 20 | 238 | 9.7 | 19.3 | 0.00 | 0.00 | 0.00 | 43 | 1005.1 |
| 20260503233101 | 20 | 260 | 9.7 | 24.1 | 0.00 | 0.00 | 0.00 | 44 | 1005.2 |
| 20260503232557 | 20 | 232 | 12.9 | 24.1 | 0.00 | 0.00 | 0.00 | 43 | 1005.2 |
| 20260503232057 | 20 | 257 | 11.3 | 29.0 | 0.00 | 0.00 | 0.00 | 43 | 1005.3 |
| 20260503231559 | 20 | 171 | 12.9 | 29.0 | 0.00 | 0.00 | 0.00 | 43 | 1005.3 |
| 20260503231058 | 20 | 244 | 12.9 | 27.4 | 0.00 | 0.00 | 0.00 | 44 | 1005.4 |
| 20260503230558 | 20 | 212 | 8.0 | 30.6 | 0.00 | 0.00 | 0.00 | 44 | 1005.4 |
| 20260503230059 | 20 | 250 | 14.5 | 30.6 | 0.00 | 0.00 | 0.00 | 43 | 1005.4 |
| 20260503225558 | 20 | 200 | 12.9 | 25.7 | 0.00 | 0.00 | 0.00 | 43 | 1005.5 |
| 20260503225058 | 20 | 214 | 12.9 | 25.7 | 0.00 | 0.00 | 0.00 | 43 | 1005.5 |
| 20260503224559 | 20 | 240 | 11.3 | 25.7 | 0.00 | 0.00 | 0.00 | 42 | 1005.6 |
| 20260503224058 | 20 | 240 | 9.7 | 25.7 | 0.00 | 0.00 | 0.00 | 43 | 1005.6 |
| 20260503223558 | 20 | 218 | 11.3 | 33.8 | 0.00 | 0.00 | 0.00 | 43 | 1005.6 |
| 20260503223059 | 20 | 242 | 16.1 | 33.8 | 0.00 | 0.00 | 0.00 | 41 | 1005.6 |
| 20260503222557 | 20 | 224 | 14.5 | 35.4 | 0.00 | 0.00 | 0.00 | 43 | 1005.5 |
| 20260503222057 | 20 | 223 | 16.1 | 35.4 | 0.00 | 0.00 | 0.00 | 43 | 1005.6 |
| 20260503221602 | 20 | 267 | 16.1 | 35.4 | 0.00 | 0.00 | 0.00 | 42 | 1005.5 |
| 20260503221101 | 20 | 204 | 14.5 | 38.6 | 0.00 | 0.00 | 0.00 | 43 | 1005.4 |
| 20260503220558 | 20 | 254 | 17.7 | 38.6 | 0.00 | 0.00 | 0.00 | 44 | 1005.3 |
| 20260503220059 | 20 | 223 | 16.1 | 33.8 | 0.00 | 0.00 | 0.00 | 43 | 1005.5 |
| 20260503215558 | 20 | 201 | 16.1 | 40.2 | 0.00 | 0.00 | 0.00 | 43 | 1005.5 |
| 20260503215057 | 20 | 234 | 17.7 | 40.2 | 0.00 | 0.00 | 0.00 | 45 | 1005.5 |
| 20260503214559 | 20 | 202 | 17.7 | 45.1 | 0.00 | 0.00 | 0.00 | 46 | 1005.6 |
| 20260503214058 | 20 | 214 | 22.5 | 45.1 | 0.00 | 0.00 | 0.00 | 43 | 1005.5 |
| 20260503213604 | 20 | 220 | 19.3 | 45.1 | 0.00 | 0.00 | 0.00 | 44 | 1005.5 |
| 20260503213059 | 19 | 224 | 19.3 | 46.7 | 0.00 | 0.00 | 0.00 | 45 | 1005.8 |
| 20260503212558 | 19 | 235 | 24.1 | 46.7 | 0.00 | 0.00 | 0.00 | 43 | 1006.0 |
| 20260503212057 | 20 | 211 | 20.9 | 45.1 | 0.00 | 0.00 | 0.00 | 44 | 1006.0 |
| 20260503211604 | 20 | 207 | 14.5 | 37.0 | 0.00 | 0.00 | 0.00 | 45 | 1006.0 |
| 20260503211057 | 19 | 202 | 17.7 | 37.0 | 0.00 | 0.00 | 0.00 | 45 | 1006.1 |
| 20260503210557 | 19 | 208 | 17.7 | 40.2 | 0.00 | 0.00 | 0.00 | 45 | 1006.1 |
| 20260503210058 | 19 | 228 | 19.3 | 43.5 | 0.00 | 0.00 | 0.00 | 46 | 1006.1 |
| 20260503205558 | 18 | 221 | 22.5 | 43.5 | 0.00 | 0.00 | 0.00 | 45 | 1006.4 |
| 20260503205100 | 18 | 210 | 22.5 | 43.5 | 0.00 | 0.00 | 0.00 | 44 | 1006.5 |
| 20260503204558 | 18 | 205 | 19.3 | 43.5 | 0.00 | 0.00 | 0.00 | 44 | 1006.4 |
| 20260503204100 | 18 | 224 | 25.7 | 43.5 | 0.00 | 0.00 | 0.00 | 43 | 1006.7 |
| 20260503203601 | 18 | 215 | 25.7 | 43.5 | 0.00 | 0.00 | 0.00 | 45 | 1006.8 |
| 20260503203110 | 18 | 235 | 22.5 | 45.1 | 0.00 | 0.00 | 0.00 | 45 | 1007.1 |
| 20260503202558 | 18 | 207 | 20.9 | 51.5 | 0.00 | 0.00 | 0.00 | 44 | 1007.1 |
| 20260503202101 | 18 | 205 | 24.1 | 51.5 | 0.00 | 0.00 | 0.00 | 44 | 1007.0 |
| 20260503201600 | 18 | 205 | 25.7 | 51.5 | 0.00 | 0.00 | 0.00 | 46 | 1007.2 |
| 20260503201100 | 18 | 223 | 25.7 | 48.3 | 0.00 | 0.00 | 0.00 | 47 | 1007.1 |
| 20260503200557 | 18 | 217 | 27.4 | 48.3 | 0.00 | 0.00 | 0.00 | 49 | 1007.3 |
| 20260503200100 | 18 | 216 | 20.9 | 45.1 | 0.00 | 0.00 | 0.00 | 48 | 1007.4 |
| 20260503195558 | 17 | 209 | 20.9 | 38.6 | 0.00 | 0.00 | 0.00 | 51 | 1007.6 |
| 20260503195057 | 17 | 227 | 17.7 | 48.3 | 0.00 | 0.00 | 0.00 | 53 | 1007.9 |
| 20260503194603 | 17 | 232 | 22.5 | 48.3 | 0.00 | 0.00 | 0.00 | 52 | 1008.0 |
| 20260503194057 | 17 | 205 | 24.1 | 48.3 | 0.00 | 0.00 | 0.00 | 53 | 1008.2 |
| 20260503193558 | 17 | 202 | 24.1 | 48.3 | 0.00 | 0.00 | 0.00 | 51 | 1008.4 |
| 20260503193059 | 17 | 210 | 25.7 | 48.3 | 0.00 | 0.00 | 0.00 | 51 | 1008.4 |
| 20260503192557 | 17 | 208 | 22.5 | 43.5 | 0.00 | 0.00 | 0.00 | 50 | 1008.5 |
| 20260503192058 | 17 | 205 | 22.5 | 46.7 | 0.00 | 0.00 | 0.00 | 50 | 1008.5 |
| 20260503191558 | 16 | 218 | 20.9 | 46.7 | 0.00 | 0.00 | 0.00 | 49 | 1008.5 |
| 20260503191100 | 17 | 211 | 30.6 | 46.7 | 0.00 | 0.00 | 0.00 | 48 | 1008.7 |
| 20260503190558 | 17 | 221 | 19.3 | 41.8 | 0.00 | 0.00 | 0.00 | 48 | 1008.4 |
| 20260503190100 | 17 | 229 | 22.5 | 41.8 | 0.00 | 0.00 | 0.00 | 48 | 1008.4 |
| 20260503185557 | 16 | 202 | 17.7 | 40.2 | 0.00 | 0.00 | 0.00 | 48 | 1008.3 |
| 20260503185058 | 16 | 211 | 24.1 | 38.6 | 0.00 | 0.00 | 0.00 | 48 | 1008.2 |
| 20260503184624 | 16 | 216 | 22.5 | 38.6 | 0.00 | 0.00 | 0.00 | 49 | 1008.2 |
| 20260503184057 | 16 | 223 | 17.7 | 41.8 | 0.00 | 0.00 | 0.00 | 50 | 1008.4 |
| 20260503183558 | 16 | 230 | 24.1 | 41.8 | 0.00 | 0.00 | 0.00 | 49 | 1008.6 |
| 20260503183104 | 16 | 194 | 24.1 | 54.7 | 0.00 | 0.00 | 0.00 | 48 | 1008.6 |
| 20260503182558 | 16 | 254 | 20.9 | 54.7 | 0.00 | 0.00 | 0.00 | 49 | 1008.6 |
| 20260503182058 | 16 | 187 | 29.0 | 51.5 | 0.00 | 0.00 | 0.00 | 48 | 1008.8 |
| 20260503181559 | 16 | 198 | 22.5 | 43.5 | 0.00 | 0.00 | 0.00 | 49 | 1008.8 |
| 20260503181058 | 16 | 219 | 16.1 | 43.5 | 0.00 | 0.00 | 0.00 | 50 | 1008.9 |
| 20260503180558 | 16 | 201 | 25.7 | 41.8 | 0.00 | 0.00 | 0.00 | 50 | 1008.9 |
| 20260503180059 | 15 | 198 | 19.3 | 46.7 | 0.00 | 0.00 | 0.00 | 51 | 1009.0 |
| 20260503175558 | 15 | 213 | 25.7 | 46.7 | 0.00 | 0.00 | 0.00 | 51 | 1009.1 |
| 20260503175057 | 15 | 224 | 25.7 | 41.8 | 0.00 | 0.00 | 0.00 | 54 | 1009.2 |
| 20260503174558 | 15 | 193 | 27.4 | 45.1 | 0.00 | 0.00 | 0.00 | 54 | 1009.4 |
| 20260503174057 | 15 | 223 | 29.0 | 51.5 | 0.00 | 0.00 | 0.00 | 55 | 1009.4 |
| 20260503173558 | 15 | 206 | 25.7 | 51.5 | 0.00 | 0.00 | 0.00 | 56 | 1009.5 |
| 20260503173100 | 15 | 203 | 24.1 | 40.2 | 0.00 | 0.00 | 0.00 | 59 | 1009.7 |
| 20260503172558 | 14 | 196 | 17.7 | 48.3 | 0.00 | 0.00 | 0.00 | 61 | 1009.9 |
| 20260503172058 | 14 | 208 | 22.5 | 48.3 | 0.00 | 0.00 | 0.00 | 61 | 1010.0 |
| 20260503171613 | 13 | 223 | 17.7 | 46.7 | 0.00 | 0.00 | 0.00 | 62 | 1010.1 |
| 20260503171101 | 13 | 263 | 24.1 | 46.7 | 0.00 | 0.00 | 0.00 | 63 | 1010.3 |
| 20260503170558 | 12 | 221 | 24.1 | 38.6 | 0.00 | 0.00 | 0.00 | 63 | 1010.5 |
| 20260503170106 | 12 | 213 | 20.9 | 38.6 | 0.00 | 0.00 | 0.00 | 64 | 1010.7 |
| 20260503150559 | 13 | 236 | 22.5 | 49.9 | 0.00 | 0.00 | 0.00 | 56 | 1012.3 |
| 20260503131101 | 11 | 244 | 12.9 | 33.8 | 0.00 | 0.00 | 0.00 | 56 | 1013.3 |
| 20260503130601 | 10 | 238 | 19.3 | 33.8 | 0.00 | 0.00 | 0.00 | 56 | 1013.3 |
| 20260503110559 | 8 | 212 | 11.3 | 22.5 | 0.00 | 0.00 | 0.00 | 58 | 1012.9 |
| 20260503090117 | 8 | 211 | 8.0 | 20.9 | 0.00 | 0.00 | 0.00 | 54 | 1013.6 |
| 20260503081602 | 8 | 199 | 11.3 | 24.1 | 0.00 | 0.00 | 0.00 | 53 | 1013.9 |
| 20260503081059 | 8 | 238 | 11.3 | 22.5 | 0.00 | 0.00 | 0.00 | 54 | 1014.0 |
| 20260503080559 | 8 | 235 | 11.3 | 22.5 | 0.00 | 0.00 | 0.00 | 53 | 1014.0 |
| 20260503080110 | 8 | 202 | 11.3 | 25.7 | 0.00 | 0.00 | 0.00 | 54 | 1014.0 |
| 20260503072559 | 8 | 238 | 9.7 | 22.5 | 0.00 | 0.00 | 0.00 | 53 | 1014.0 |
| 20260503072059 | 8 | 216 | 9.7 | 22.5 | 0.00 | 0.00 | 0.00 | 53 | 1014.0 |
| 20260503071612 | 8 | 217 | 11.3 | 19.3 | 0.00 | 0.00 | 0.00 | 53 | 1014.0 |
| 20260503071058 | 8 | 223 | 9.7 | 19.3 | 0.00 | 0.00 | 0.00 | 53 | 1014.1 |
| 20260503070559 | 8 | 230 | 11.3 | 24.1 | 0.00 | 0.00 | 0.00 | 54 | 1014.0 |
| 20260503060109 | 8 | 218 | 11.3 | 19.3 | 0.00 | 0.00 | 0.00 | 54 | 1014.6 |
| 20260503055058 | 8 | 209 | 11.3 | 20.9 | 0.00 | 0.00 | 0.00 | 54 | 1014.7 |
| 20260503054610 | 8 | 221 | 9.7 | 27.4 | 0.00 | 0.00 | 0.00 | 54 | 1014.7 |
| 20260503054102 | 8 | 205 | 8.0 | 27.4 | 0.00 | 0.00 | 0.00 | 55 | 1014.7 |
| 20260503053559 | 8 | 217 | 9.7 | 20.9 | 0.00 | 0.00 | 0.00 | 55 | 1014.7 |
| 20260503053110 | 7 | 229 | 8.0 | 20.9 | 0.00 | 0.00 | 0.00 | 55 | 1014.8 |
| 20260503052559 | 7 | 209 | 8.0 | 20.9 | 0.00 | 0.00 | 0.00 | 55 | 1014.9 |
| 20260503052102 | 7 | 227 | 9.7 | 19.3 | 0.00 | 0.00 | 0.00 | 55 | 1014.9 |
| 20260503051607 | 7 | 228 | 11.3 | 19.3 | 0.00 | 0.00 | 0.00 | 55 | 1014.9 |
| 20260503051105 | 7 | 210 | 9.7 | 19.3 | 0.00 | 0.00 | 0.00 | 55 | 1015.0 |
| 20260503050558 | 7 | 219 | 9.7 | 16.1 | 0.00 | 0.00 | 0.00 | 55 | 1015.0 |
| 20260503050108 | 7 | 227 | 9.7 | 22.5 | 0.00 | 0.00 | 0.00 | 55 | 1015.1 |